Regional Weather Roundup
Issued by NWS

Home | Current Version | Previous Version | Text Only | Print | Product List | Glossary On
Versions: 1 2 3 4 5 6 7 8 9 10 11 12 13 14 15 16 17 18 19 20 21 22 23 24 25 26 27 28 29 30 31 32 33 34 35 36 37 38 39 40 41 42 43 44 45 46 47 48 49 50
000
ASUS43 KMKX 230011
RWRWI

WISCONSIN REGIONAL WEATHER ROUNDUP
NATIONAL WEATHER SERVICE MILWAUKEE/SULLIVAN WI
700 PM CDT TUE JUL 22 2014

NOTE: "FAIR" INDICATES FEW OR NO CLOUDS BELOW 12,000 FEET WITH NO
SIGNIFICANT WEATHER AND/OR OBSTRUCTIONS TO VISIBILITY.

WIZ001-002-006>008-014>016-023>028-230100-
NORTHWEST WISCONSIN

CITY           SKY/WX    TMP DP  RH WIND       PRES   REMARKS
SUPERIOR ARPT  PTSUNNY   76  58  53 N9        30.08R
6HR MIN TEMP:  76; 6HR MAX TEMP:  81;

ASHLAND        SUNNY     74  61  63 NE6       30.08R
6HR MIN TEMP:  72; 6HR MAX TEMP:  78;

HAYWARD        MOSUNNY   76  57  51 N9        30.09R
6HR MIN TEMP:  72; 6HR MAX TEMP:  81;

SIREN          MOSUNNY   77  57  50 N8        30.09R
6HR MIN TEMP:  74; 6HR MAX TEMP:  81;

RICE LAKE      MOSUNNY   78  59  51 NW6       30.09R
6HR MIN TEMP:  75; 6HR MAX TEMP:  81;

LADYSMITH      MOSUNNY   75  60  58 N10G16    30.09R
6HR MIN TEMP:  75; 6HR MAX TEMP:  80;

EAU CLAIRE     SUNNY     80  62  54 N9        30.05R HX  81
6HR MIN TEMP:  79; 6HR MAX TEMP:  86;

MENOMONIE      PTCLDY    80  60  49 NW9       30.06R HX  81
6HR MIN TEMP:  79; 6HR MAX TEMP:  84;

NEW RICHMOND   MOSUNNY   78  60  53 NW8       30.09R HX  80
6HR MIN TEMP:  76; 6HR MAX TEMP:  80;

OSCEOLA        SUNNY     78  60  53 NW7       30.11R
6HR MIN TEMP:  76; 6HR MAX TEMP:  81;

$$

WIZ003>005-009-010-017-018-230100-
NORTH CENTRAL WISCONSIN

CITY           SKY/WX    TMP DP  RH WIND       PRES   REMARKS
WOODRUFF       PTSUNNY   70  62  76 N8        30.09R
6HR MIN TEMP:  65; 6HR MAX TEMP:  80;

RHINELANDER    CLOUDY    66  60  81 VRB6      30.09R
6HR MIN TEMP:  66; 6HR MAX TEMP:  80; 6HR PCP: TRACE;

EAGLE RIVER    CLOUDY    64  60  88 N7        30.08R
6HR MIN TEMP:  64; 6HR MAX TEMP:  78; 6HR PCP:  0.02;

LAND O LAKES   CLOUDY    64  60  86 N9        30.10R
6HR MIN TEMP:  64; 6HR MAX TEMP:  78; 6HR PCP:  0.01;

PHILLIPS       MOSUNNY   71  60  67 NE15G21   30.08R
6HR MIN TEMP:  71; 6HR MAX TEMP:  76;

TOMAHAWK       MOSUNNY   69  59  70 N8G20     30.08R
6HR MIN TEMP:  69; 6HR MAX TEMP:  80;

MEDFORD        CLOUDY    72  61  68 N9        30.06R
6HR MIN TEMP:  72; 6HR MAX TEMP:  80;

MERRILL        MOSUNNY   73  62  69 N15G22    30.05R
6HR MIN TEMP:  72; 6HR MAX TEMP:  83;

$$

WIZ029-030-035-036-043>047-230100-
CENTRAL WISCONSIN

CITY           SKY/WX    TMP DP  RH WIND       PRES   REMARKS
WAUSAU         MOSUNNY   77  62  59 N13G22    30.02R
6HR MIN TEMP:  77; 6HR MAX TEMP:  87;

MOSINEE        MOSUNNY   77  64  65 NW15      30.04R
MARSHFIELD     SUNNY     78  63  59 NW15      30.04R HX  80
6HR MIN TEMP:  78; 6HR MAX TEMP:  85;

STEVENS POINT  CLOUDY    77  63  61 NW9       30.02R
6HR MIN TEMP:  77; 6HR MAX TEMP:  86;

WAUPACA        MOSUNNY   86  62  44 NW9G16    29.97R HX  86
6HR MIN TEMP:  86; 6HR MAX TEMP:  94;

WAUTOMA        SUNNY     85  66  52 NW12      29.98R HX  87
6HR MIN TEMP:  85; 6HR MAX TEMP:  94;

WISC RAPIDS    MOSUNNY   81  63  54 NW13G21   30.02R HX  82
6HR MIN TEMP:  81; 6HR MAX TEMP:  90;

CAMP DOUGLAS   MOSUNNY   82  68  61 NW15      30.00R HX  85
$$

WIZ011>013-019>022-031-037>040-048>050-230100-
NORTHEAST WISCONSIN

CITY           SKY/WX    TMP DP  RH WIND       PRES   REMARKS
ANTIGO         PTSUNNY   71  63  74 N17G25    30.04R
6HR MIN TEMP:  71; 6HR MAX TEMP:  82;

STURGEON BAY   MOSUNNY   81  64  57 N17G26    29.94R HX  82
6HR MIN TEMP:  81; 6HR MAX TEMP:  90;

GREEN BAY      MOSUNNY   85  66  53 N14G23    29.93R HX  87
6HR MIN TEMP:  85; 6HR MAX TEMP:  91;

MANITOWOC      MOSUNNY   87  66  49 NW15      29.90R HX  89
6HR MIN TEMP:  86; 6HR MAX TEMP:  90;

APPLETON       PTSUNNY   84  63  48 NW12G22   29.94R HX  85
CLINTONVILLE   PTSUNNY   81  63  54 NW14G23   29.97R HX  82
OSHKOSH        SUNNY     85  66  53 NW15      29.93R HX  87
6HR MIN TEMP:  85; 6HR MAX TEMP:  91;

$$

WIZ032>034-041-042-053>061-230100-
SOUTHWEST WISCONSIN

CITY           SKY/WX    TMP DP  RH WIND       PRES   REMARKS
LA CROSSE      SUNNY     84  65  52 NW16      30.02R HX  86
6HR MIN TEMP:  84; 6HR MAX TEMP:  91;

SPARTA         SUNNY     83  64  53 NW14      30.03R HX  84
6HR MIN TEMP:  83; 6HR MAX TEMP:  90;

VIROQUA        FAIR      81  66  60 NW15G22   30.03R HX  83
6HR MIN TEMP:  81; 6HR MAX TEMP:  88;

BOSCOBEL       SUNNY     87  68  52 NW14G21   29.98R HX  90
6HR MIN TEMP:  87; 6HR MAX TEMP:  96;

PRAIRIE DU CHI SUNNY     85  65  50 NW10      29.99R HX  87
6HR MIN TEMP:  85; 6HR MAX TEMP:  93;

PLATTEVILLE    FAIR      86  71  60 NW10G16   30.00R HX  91
6HR MIN TEMP:  86; 6HR MAX TEMP:  91;

$$

WIZ056-057-062-063-064-067-068-230100-
SOUTH CENTRAL WISCONSIN

CITY           SKY/WX    TMP DP  RH WIND       PRES   REMARKS
BARABOO/DELLS  SUNNY     84  64  50 NW12G20   29.97R HX  86
6HR MIN TEMP:  84; 6HR MAX TEMP:  93;

LONE ROCK      MOSUNNY   89  70  53 NW12      29.97R HX  94
6HR MIN TEMP:  89; 6HR MAX TEMP:  96;

WATERTOWN      PTSUNNY   86  73  65 NW12G18   29.93R HX  93
6HR MIN TEMP:  85; 6HR MAX TEMP:  90;

MADISON        MOSUNNY   87  72  60 N14G21    29.95R HX  93
6HR MIN TEMP:  86; 6HR MAX TEMP:  93;

MIDDLETON      FAIR      87  71  58 N9G21     29.97R HX  92
6HR MIN TEMP:  87; 6HR MAX TEMP:  94;

MONROE         PTSUNNY   88  73  62 W5        29.96S HX  96
JANESVILLE     MOSUNNY   91  75  59 W8        29.93S HX 102
$$

WIZ051-052-058>065-066-070>072-230100-
SOUTHEAST WISCONSIN

CITY           SKY/WX    TMP DP  RH WIND       PRES   REMARKS
MILWAUKEE      MOSUNNY   87  75  67 SW13      29.91R HX  96
6HR MIN TEMP:  87; 6HR MAX TEMP:  89;

WAUKESHA       MOSUNNY   84  75  74 SW8       29.94R HX  92
MILWAUKEE/TIMM MOSUNNY   86  73  66 SW9       29.91S HX  93
RACINE         MOSUNNY   86  75  69 W7        29.94R HX  95
6HR MIN TEMP:  85; 6HR MAX TEMP:  89;

BURLINGTON     MOSUNNY   83  75  78 SW7       29.94R HX  90
6HR MIN TEMP:  82; 6HR MAX TEMP:  85;

KENOSHA        MOSUNNY   86  77  74 W10       29.93S HX  97
6HR MIN TEMP:  84; 6HR MAX TEMP:  89;

FOND DU LAC    SUNNY     87  66  49 NW14      29.93R HX  89
6HR MIN TEMP:  87; 6HR MAX TEMP:  91; 6HR PCP: TRACE;

SHEBOYGAN      MOSUNNY   86  70  58 NW9G20    29.91R HX  90
6HR MIN TEMP:  81; 6HR MAX TEMP:  90; 6HR PCP:  0.03;

WEST BEND      PTSUNNY   82  72  69 NW7       29.93R HX  87
JUNEAU         SUNNY     85  65  51 NW9G16    29.95R HX  87
6HR MIN TEMP:  84; 6HR MAX TEMP:  89;

$$

LSZ147-162-230100-
LAKE SUPERIOR

STATION/POSITION TIME  TEMP    WIND        PRES    WAVE
                       AIR SEA DIR/SP/G            HT/PER
                 (UTC) (F)     (DEG/KT/KT) (MB)    (FT/S)
W MID LAKE BUOY  2350   53 40   70/  4/  4 1018.2R   2/ 4
PORT WING        2300   71      40/  6/  7 1017.9R
SAXON HARBOR     2300             CALM     1017.9
$$

LMZ867-665-643>646-230100-
LAKE MICHIGAN

STATION/POSITION TIME  TEMP    WIND        PRES    WAVE
                       AIR SEA DIR/SP/G            HT/PER
                 (UTC) (F)     (DEG/KT/KT) (MB)    (FT/S)
N MID LAKE BUOY  2350   65 60  360/  8/ 12 1012.1R   4/ 6
NORTHPORT PIER   2300   73     320/ 15/ 19 1011.9R
KEWAUNEE LAKESHO 2300          330/ 10/ 16 1012.1S
SHEBOYGAN LAKESH 0000   89     300/ 14/ 16 1012.2R
PORT WASHINGTON  2340          290/  5/  9 1012.5R
ATWATER BUOY     0000   77     230/ 10     1013.7R
MILWAUKEE LAKESH 2300   85     240/ 10/ 13   N/A
S MID LAKE BUOY  2350   71 66  200/ 10/ 12 1013.2R   2/ 4
KENOSHA   LAKESH 0000   88     240/  8/ 14   N/A
$$

TC  - TEMPERATURE IN CELSIUS
VSB - VISIBILITY IN STATUTE MILES
WCI - WIND CHILL INDEX
HX  - HEAT INDEX



USA.gov is the U.S. government's official web portal to all federal, state and local government web resources and services.